CAPE
0 0 0 0 0 1 20 34 1 16 31 112 79 79 175 462 397 502 168 23 0 0 0 0 0 0 0 0 0 0 0 0 0 0 0 0 0 0 0 0 0 0 0 0
0 0 0 0 0 28 44 9 15 24 18 8 0 1 156 411 358 465 409 234 21 0 0 0 0 0 0 0 0 0 0 0 0 0 0 0 0 0 0 0 0 0 0 0
0 0 0 0 7 43 6 0 0 0 15 0 0 0 369 435 376 358 286 319 188 10 0 0 0 0 0 0 0 0 0 0 0 0 0 0 0 0 0 0 0 0 0 0
0 0 0 3 23 18 11 0 0 16 37 22 0 0 108 198 384 257 232 265 309 200 19 1 0 0 0 0 0 0 0 0 0 0 0 0 0 0 0 0 0 0 0 0
0 0 0 0 23 4 3 0 11 18 24 1 0 0 0 0 0 86 347 89 237 181 138 32 0 0 0 0 0 0 0 0 0 0 0 0 0 0 0 0 0 0 0 0
0 0 0 0 16 11 11 24 28 8 18 34 0 0 0 0 7 8 106 279 139 161 97 33 4 0 0 0 0 0 0 0 0 0 0 0 0 0 0 0 0 0 0 0
0 0 0 0 5 9 6 0 0 0 0 1 7 19 0 0 0 0 9 41 215 129 211 138 96 17 7 0 0 0 0 0 0 0 0 0 0 0 0 0 0 0 0 0
0 0 0 1 2 0 0 0 0 0 0 0 38 24 5 0 0 0 2 0 93 137 258 264 156 64 29 0 0 0 0 0 0 0 0 0 0 0 0 0 0 0 0 0
0 0 0 7 1 0 0 1 0 0 0 0 2 4 15 15 2 4 3 0 0 10 165 318 106 66 21 5 0 0 0 0 0 0 0 0 0 0 0 0 0 0 0 0
0 0 0 8 9 0 11 1 0 4 0 0 0 0 0 9 27 5 2 0 7 28 66 23 13 30 0 10 3 0 0 0 0 0 0 0 0 0 0 0 0 0 0 0
0 0 0 1 31 25 29 31 1 1 0 0 0 0 0 7 12 7 0 0 7 88 98 112 78 9 0 1 0 0 0 0 0 0 0 0 0 0 0 0 0 0 0 0
0 0 0 28 9 9 11 20 2 2 35 31 0 0 32 0 2 0 0 6 44 111 127 91 36 2 24 0 0 0 0 0 0 0 0 0 0 0 0 0 0 0 0 0
0 5 1 30 35 33 20 7 16 4 0 3 0 0 91 74 38 0 0 0 0 0 35 40 4 5 1 0 0 0 0 0 0 0 0 0 0 0 0 0 0 0 0 0
0 0 0 0 1 1 0 36 18 9 1 0 0 0 28 87 12 15 21 0 0 0 0 0 34 9 46 14 0 0 0 0 0 0 0 0 0 0 0 0 0 0 0 0
0 0 0 0 0 19 26 9 16 15 3 0 0 1 23 29 9 2 13 0 0 0 0 0 4 17 120 52 0 0 0 0 0 0 0 0 0 0 0 0 0 0 0 0
0 0 0 0 7 23 15 3 5 1 0 0 54 176 193 83 53 10 0 0 0 0 2 112 30 38 67 74 6 0 0 0 0 0 0 0 0 0 0 0 0 0 0 0
27 0 44 0 47 7 0 3 49 92 58 135 213 236 193 133 46 0 0 0 0 0 59 165 148 91 12 60 0 0 0 0 0 0 0 0 0 0 0 0 0 0 0 0
36 159 232 90 67 0 41 0 173 242 138 133 219 119 45 4 0 0 0 0 0 65 155 167 111 53 48 0 0 0 0 0 0 0 0 0 0 0 0 0 0 0 0 0
0 0 1 5 0 0 27 32 46 25 189 206 273 132 0 3 0 10 0 0 2 123 330 173 65 39 31 13 2 0 9 3 0 0 0 0 0 0 0 0 0 0 0 10
3 2 0 29 30 0 42 106 17 9 48 34 6 205 0 1 33 25 17 94 198 335 265 161 57 22 20 1 4 0 0 0 0 0 0 0 0 0 0 0 5 34 48 0
131 92 67 2 0 0 66 56 39 123 87 294 15 68 287 51 123 116 132 143 259 383 296 139 52 22 13 0 0 0 41 99 54 70 117 106 98 92 42 0 0 0 0 0
0 14 50 14 3 11 56 64 71 282 340 119 95 29 203 121 119 254 188 125 131 237 176 66 1 0 0 0 0 0 8 101 117 34 0 0 0 0 0 0 0 0 0 0
0 0 0 1 9 168 194 181 88 117 82 0 0 0 0 83 174 297 152 59 0 62 17 0 0 0 0 0 0 0 0 0 0 0 0 0 0 0 0 0 0 0 0 0
0 85 125 0 165 236 186 75 0 1 4 0 0 2 85 93 179 218 239 32 0 0 0 0 0 0 0 0 0 0 0 0 0 0 0 0 0 0 0 0 0 0 0 0
27 0 8 83 48 43 72 45 9 48 0 0 65 416 101 234 249 303 279 51 6 2 0 0 0 0 0 0 0 0 0 0 0 0 0 0 0 0 0 0 0 0 0 0
11 47 39 5 265 237 25 0 3 18 6 7 318 211 407 218 260 292 156 76 22 6 0 0 0 0 0 0 0 0 0 0 0 0 0 0 0 0 0 0 0 0 0 0
CIN
-0 -0 -0 -0 -0 -20 -64 -26 -22 -83 -124 -103 -92 -82 -179 -252 -229 -205 -252 -343 -0 -0 -0 -0 -0 -0 -0 -0 -0 -0 -0 -0 -0 -0 -0 -0 -0 -0 -0 -0 -0 -0 -0 -0
-0 -0 -0 -0 -0 -83 -77 -39 -76 -83 -90 -85 -0 -79 -160 -212 -219 -228 -230 -248 -187 -0 -0 -0 -0 -0 -0 -0 -0 -0 -0 -0 -0 -0 -0 -0 -0 -0 -0 -0 -0 -0 -0 -0
-0 -0 -0 -0 -17 -37 -52 -0 -0 -0 -103 -0 -0 -0 -199 -232 -238 -206 -209 -200 -210 -201 -0 -0 -0 -0 -0 -0 -0 -0 -0 -0 -0 -0 -0 -0 -0 -0 -0 -0 -0 -0 -0 -0
-0 -0 -0 -1 -16 -36 -30 -0 -0 -63 -50 -77 -0 -0 -201 -216 -167 -239 -217 -142 -200 -253 -384 -260 -0 -0 -0 -0 -0 -0 -0 -0 -0 -0 -0 -0 -0 -0 -0 -0 -0 -0 -0 -0
-0 -0 -0 -0 -11 -31 -20 -0 -43 -84 -66 -18 -0 -4 -0 -0 -0 -139 -163 -170 -165 -232 -241 -403 -0 -0 -0 -0 -0 -0 -0 -0 -0 -0 -0 -0 -0 -0 -0 -0 -0 -0 -0 -0
-0 -0 -0 -0 -30 -30 -56 -54 -74 -127 -113 -42 -0 -0 -0 -0 -158 -159 -110 -153 -146 -239 -262 -345 -236 -0 -0 -0 -0 -0 -0 -0 -0 -0 -0 -0 -0 -0 -0 -0 -0 -0 -0 -0
-0 -0 -0 -0 -25 -41 -46 -0 -0 -0 -0 -4 -131 -54 -0 -0 -0 -0 -88 -104 -127 -201 -252 -312 -337 -418 -439 -0 -0 -0 -0 -0 -0 -0 -0 -0 -0 -0 -0 -0 -0 -0 -0 -0
-0 -0 -0 -81 -55 -2 -0 -0 -0 -0 -0 -0 -92 -17 -47 -0 -0 -0 -84 -0 -159 -177 -209 -236 -295 -396 -444 -0 -0 -0 -0 -0 -0 -0 -0 -0 -0 -0 -0 -0 -0 -0 -0 -0
-0 -0 -0 -39 -81 -0 -0 -15 -0 -0 -0 -0 -17 -45 -132 -175 -51 -51 -82 -0 -0 -270 -230 -122 -277 -376 -424 -229 -0 -0 -0 -0 -0 -0 -0 -0 -0 -0 -0 -0 -0 -0 -0 -0
-0 -0 -0 -34 -40 -26 -47 -124 -0 -46 -0 -0 -0 -0 -55 -80 -80 -103 -97 -0 -251 -214 -172 -283 -192 -272 -0 -216 -389 -0 -0 -0 -0 -0 -0 -0 -0 -0 -0 -0 -0 -0 -0 -0
-0 -0 -0 -0 -18 -22 -45 -37 -20 -98 -0 -7 -0 -0 -0 -66 -129 -140 -0 -0 -234 -252 -320 -310 -207 -205 -0 -85 -0 -0 -0 -0 -0 -0 -0 -0 -0 -0 -0 -0 -0 -0 -0 -0
-0 -0 -0 -23 -68 -58 -31 -36 -44 -54 -36 -81 -0 -0 -186 -5 -86 -0 -0 -108 -303 -308 -376 -235 -294 -18 -325 -0 -0 -0 -0 -0 -0 -0 -0 -0 -0 -0 -0 -0 -0 -0 -0 -0
-18 -55 -20 -35 -55 -58 -38 -55 -85 -36 -41 -40 -0 -0 -182 -185 -177 -67 -51 -0 -0 -0 -381 -357 -187 -91 -54 -0 -0 -0 -0 -0 -0 -0 -0 -0 -0 -0 -0 -0 -0 -0 -0 -0
-0 -0 -0 -0 -42 -19 -2 -26 -61 -37 -34 -0 -0 -0 -93 -139 -159 -208 -183 -0 -0 -0 -0 -0 -304 -317 -237 -221 -0 -0 -0 -0 -0 -0 -0 -0 -0 -0 -0 -0 -0 -0 -0 -0
-0 -0 -0 -0 -0 -40 -19 -39 -37 -38 -34 -7 -0 -31 -73 -166 -240 -184 -269 -0 -0 -0 -0 -0 -79 -299 -221 -266 -0 -0 -0 -0 -0 -0 -0 -0 -0 -0 -0 -0 -0 -0 -0 -0
-0 -0 -1 -0 -74 -46 -41 -62 -55 -14 -3 -0 -37 -54 -197 -249 -295 -237 -0 -0 -0 -0 -25 -157 -287 -314 -275 -243 -188 -0 -0 -0 -0 -0 -0 -0 -0 -0 -0 -0 -0 -0 -0 -0
-21 -0 -82 -0 -50 -36 -0 -45 -43 -53 -70 -28 -33 -79 -206 -185 -194 -0 -0 -0 -0 -0 -179 -133 -118 -208 -282 -156 -0 -0 -0 -0 -0 -0 -0 -0 -0 -0 -0 -0 -0 -0 -0 -0
-28 -57 -45 -62 -54 -0 -61 -8 -69 -51 -90 -88 -94 -112 -162 -70 -0 -0 -0 -0 -0 -165 -147 -147 -163 -186 -166 -52 -0 -0 -0 -0 -0 -0 -0 -0 -0 -0 -0 -0 -0 -0 -0 -0
-0 -0 -23 -15 -0 -0 -64 -77 -70 -89 -33 -133 -103 -136 -0 -131 -0 -184 -0 -0 -97 -167 -167 -172 -184 -181 -169 -151 -24 -0 -115 -54 -0 -0 -0 -0 -0 -0 -0 -0 -0 -0 -0 -83
-10 -12 -2 -66 -20 -0 -85 -112 -202 -212 -40 -139 -127 -44 -0 -131 -92 -137 -231 -190 -183 -180 -171 -176 -185 -204 -152 -8 -111 -0 -0 -0 -0 -0 -0 -0 -0 -0 -0 -0 -103 -101 -52 -0
-64 -76 -52 -21 -0 -4 -111 -145 -198 -45 -107 -283 -108 -237 -156 -96 -67 -105 -214 -193 -179 -182 -181 -190 -184 -145 -158 -0 -0 -0 -125 -75 -93 -88 -50 -53 -70 -67 -44 -0 -0 -0 -0 -0
-0 -31 -44 -101 -33 -29 -199 -157 -87 -216 -238 -247 -148 -52 -48 -124 -102 -130 -152 -148 -148 -157 -179 -194 -63 -0 -0 -0 -0 -0 -77 -123 -92 -120 -0 -0 -0 -0 -0 -0 -0 -0 -0 -0
-0 -0 -0 -11 -144 -285 -318 -227 -332 -352 -237 -0 -0 -15 -0 -163 -72 -83 -117 -135 -0 -168 -168 -13 -0 -0 -0 -0 -0 -0 -22 -0 -0 -0 -0 -0 -0 -0 -0 -0 -0 -0 -0 -0
-0 -212 -131 -0 -241 -209 -252 -332 -0 -246 -311 -0 -0 -27 -145 -153 -94 -76 -111 -187 -0 -0 -0 -0 -0 -0 -0 -0 -0 -0 -0 -0 -0 -0 -0 -0 -0 -0 -0 -0 -0 -0 -0 -0
-131 -0 -203 -197 -298 -332 -290 -307 -328 -266 -21 -0 -258 -112 -101 -91 -128 -162 -214 -250 -257 -121 -0 -0 -0 -0 -0 -0 -0 -0 -0 -0 -0 -0 -0 -0 -0 -0 -0 -0 -0 -0 -0 -0
-135 -88 -92 -91 -101 -80 -132 -0 -223 -314 -241 -343 -137 -126 -130 -127 -173 -211 -267 -287 -260 -241 -0 -0 -0 -0 -0 -0 -0 -0 -0 -0 -0 -0 -0 -0 -0 -0 -0 -0 -0 -0 -0 -0
Wind_Speed
14 16 11 9 8 9 9 6 12 5 6 10 7 8 2 7 9 6 10 9 8 8 8 9 10 12 14 15 16 16 16 15 16 16 17 17 16 15 16 16 18 20 21 23
17 16 19 23 11 11 11 13 11 18 21 11 11 10 2 6 7 11 10 10 8 8 8 8 9 9 11 13 14 16 16 15 16 16 16 16 15 16 14 15 16 17 19 21
17 17 24 5 14 11 8 14 16 17 20 19 15 15 15 11 13 9 16 10 7 7 7 7 7 7 8 9 12 14 16 15 14 15 15 15 16 16 15 16 15 15 17 20
12 20 26 21 19 16 17 17 15 22 26 28 26 23 24 23 25 15 13 14 8 7 7 7 7 5 6 7 10 13 15 15 15 15 15 15 16 16 15 16 16 14 15 18
22 6 27 19 5 18 15 15 21 23 24 22 24 23 20 23 6 3 3 6 8 7 6 7 8 6 6 6 8 11 14 14 15 15 15 16 15 15 15 17 19 16 15 17
26 24 26 23 21 21 15 15 23 24 25 25 19 22 21 14 11 14 8 4 11 8 6 7 8 8 5 5 7 9 11 13 14 16 16 16 15 15 14 17 18 15 14 16
27 24 25 20 23 24 21 20 23 26 29 27 13 18 19 10 7 9 9 16 4 4 11 8 8 6 6 6 6 6 9 10 12 14 15 15 16 15 15 15 14 15 13 13
23 26 22 21 25 22 21 18 21 26 29 28 16 24 20 11 13 11 26 21 13 5 4 7 8 8 7 7 7 6 7 9 10 12 13 14 15 15 15 14 14 14 15 14
19 25 20 20 23 21 17 21 19 26 24 19 19 16 17 13 13 18 27 33 30 11 2 4 4 8 9 7 7 6 7 7 8 9 12 12 14 15 14 12 14 14 14 15
18 20 18 19 17 22 18 16 27 28 28 26 24 22 23 14 12 21 31 30 29 24 10 12 8 7 5 10 8 7 8 7 7 8 9 10 13 12 12 12 11 12 12 12
2 0 18 20 19 14 17 21 21 21 20 21 25 27 16 18 13 16 25 28 28 22 17 8 4 1 12 14 11 7 6 7 7 6 7 8 12 11 10 11 9 10 9 9
15 14 13 11 21 13 13 16 17 20 18 17 19 16 20 19 19 18 22 25 26 24 22 14 8 12 10 16 8 4 5 7 6 7 6 7 10 10 9 9 8 9 9 8
14 16 14 14 16 16 14 18 13 14 17 13 16 16 18 16 16 20 23 21 23 21 18 16 15 9 9 6 3 3 4 5 8 8 6 7 9 8 8 8 9 9 10 9
16 13 10 9 11 14 13 24 5 11 16 14 9 8 13 14 16 19 22 23 21 22 20 16 15 12 11 7 5 4 3 7 11 7 6 8 8 7 7 7 7 8 10 11
16 16 11 12 16 21 26 28 6 7 11 8 10 14 14 13 14 17 19 22 23 23 20 17 14 11 7 8 6 4 4 9 12 11 11 9 7 7 7 9 8 9 10 10
17 17 17 20 21 24 25 23 25 25 12 11 16 15 15 15 15 15 19 21 23 23 22 18 13 8 8 8 7 6 7 10 12 15 16 14 12 11 10 9 8 8 9 11
16 17 19 20 23 23 20 22 19 18 19 19 14 16 14 16 13 16 18 20 22 23 24 23 24 14 11 10 10 8 9 11 13 15 16 16 15 15 13 10 11 9 9 12
15 16 15 19 21 22 17 23 18 18 22 20 18 16 13 13 11 16 16 18 21 24 26 25 23 20 16 14 13 13 12 12 13 13 14 15 16 15 15 15 13 11 11 12
14 15 18 19 19 19 20 22 22 22 20 21 19 17 13 14 12 13 14 16 19 21 22 23 22 20 19 17 16 16 16 14 13 11 11 14 15 15 16 16 16 17 19 20
20 19 15 18 20 24 23 25 20 18 24 24 25 18 26 4 15 13 12 15 17 19 21 22 22 20 19 18 19 20 23 22 20 19 22 21 22 23 24 25 24 22 25 27
21 20 19 21 22 21 19 18 20 22 26 30 26 22 23 19 10 13 12 14 14 16 18 20 21 20 18 18 20 22 25 25 24 24 26 28 30 30 30 29 29 30 33 34
21 22 22 20 22 25 23 23 21 18 21 23 24 26 30 33 23 11 12 13 13 14 15 16 17 19 20 20 21 21 23 24 24 25 27 30 31 31 31 32 33 33 34 35
22 20 20 20 19 20 20 17 14 15 18 21 25 19 4 12 9 6 10 10 10 9 12 15 18 19 22 23 23 23 24 25 26 27 29 30 31 33 34 33 33 33 35 35
18 17 20 19 19 18 17 14 13 13 18 15 23 10 6 6 13 17 9 9 12 10 12 15 18 19 22 24 25 25 26 26 27 28 29 30 33 34 33 33 33 34 35 33
18 17 20 21 20 21 18 17 16 18 17 16 7 9 5 9 16 18 16 13 13 13 14 16 17 19 22 23 25 25 26 26 27 28 30 31 33 32 32 32 31 33 31 32
17 21 24 26 17 20 23 18 13 19 15 10 11 10 9 11 14 17 17 15 14 15 16 17 18 19 20 22 24 26 27 26 26 28 29 31 31 31 31 32 32 32 32 34
Wind_Direction
240 290 227 226 174 136 80 113 93 125 117 52 193 226 204 152 157 149 158 145 135 137 122 109 102 90 78 73 67 64 63 58 54 50 51 52 51 55 54 52 46 42 40 35
314 246 265 269 183 140 77 81 90 57 44 56 14 7 62 175 178 173 168 164 141 127 114 115 113 101 91 79 68 59 55 55 51 49 49 48 48 44 56 55 48 43 40 35
346 257 301 68 117 111 117 58 47 36 34 34 34 12 8 1 335 192 211 184 163 144 147 141 131 120 101 86 68 61 54 54 53 50 47 42 39 42 46 42 42 42 40 37
321 351 312 325 8 26 34 28 43 14 5 0 22 23 21 1 273 209 214 204 180 171 169 161 157 137 122 96 65 57 52 49 50 46 42 40 36 31 37 34 34 39 43 38
231 197 300 274 359 359 28 39 10 2 7 10 9 23 28 56 135 197 237 226 220 203 182 169 171 162 132 87 72 60 49 50 50 48 42 36 33 35 33 30 26 40 42 36
232 312 323 286 325 2 25 29 12 3 5 3 20 18 19 57 54 31 37 304 221 211 191 182 166 155 116 87 76 66 55 55 56 57 52 45 37 32 31 25 29 37 39 30
279 301 316 313 311 325 10 11 3 354 350 357 44 36 25 59 56 68 52 12 246 209 183 182 175 159 148 122 104 85 68 64 62 55 54 51 43 37 31 24 27 27 30 28
289 259 320 286 336 337 355 18 3 356 349 354 31 8 17 54 54 50 11 26 32 135 188 189 185 180 166 135 122 97 81 65 67 61 57 54 44 36 31 35 29 27 26 25
292 230 315 332 359 6 355 3 17 358 344 1 9 18 33 38 34 23 14 5 4 23 56 160 221 198 177 147 149 110 88 75 72 66 57 51 41 35 35 32 28 27 26 23
205 227 325 318 356 357 17 31 351 353 345 351 2 10 5 22 37 19 10 14 19 28 39 3 349 192 187 179 167 135 116 98 84 73 61 53 40 37 36 34 32 28 25 26
18 338 223 315 330 357 5 359 9 10 11 8 0 5 35 23 30 31 18 18 15 18 18 33 23 219 187 197 188 133 108 79 73 67 57 43 33 31 32 31 32 31 32 32
319 338 341 349 324 11 14 1 358 356 6 6 10 12 16 24 31 37 27 23 20 25 21 48 64 192 196 194 186 142 93 69 63 42 43 33 28 32 33 33 35 35 32 32
337 328 345 354 359 3 5 355 3 8 4 356 0 8 21 35 35 27 22 27 30 32 47 51 57 156 169 146 145 125 103 61 32 30 31 26 27 37 31 28 28 28 26 24
342 352 0 356 4 5 6 275 46 8 0 8 358 356 12 19 26 24 23 28 36 38 41 48 54 82 123 103 85 123 123 36 23 23 29 24 28 31 27 29 29 28 22 21
359 343 3 355 346 336 331 336 15 359 1 16 27 17 20 29 34 27 27 26 26 29 31 31 38 56 96 51 92 106 87 35 25 34 28 23 29 28 26 23 25 22 17 13
359 2 355 335 332 327 335 359 4 5 21 4 9 22 21 30 25 36 26 21 22 24 24 26 31 63 75 72 90 79 53 41 39 31 26 27 25 25 19 16 17 14 6 0
355 356 347 344 340 337 345 352 4 8 13 357 13 16 21 13 29 27 29 27 24 26 26 32 32 59 65 83 77 70 58 46 38 29 27 28 29 20 19 16 9 3 352 349
352 352 355 343 344 339 355 350 360 4 3 350 354 5 17 30 55 32 32 31 30 27 28 33 40 51 67 73 66 56 51 45 36 32 26 26 21 19 14 13 9 360 353 344
346 345 340 338 340 344 345 342 339 336 345 357 0 356 14 358 29 36 35 36 32 30 32 37 43 52 55 54 48 41 36 32 30 34 31 23 18 16 14 12 8 6 3 357
338 339 331 332 331 332 347 335 351 347 329 350 348 1 342 21 357 16 41 32 37 40 38 39 41 44 48 48 43 35 24 22 25 25 14 20 21 16 13 10 9 11 6 4
333 338 334 329 327 334 350 1 353 337 329 341 350 346 342 297 0 16 32 24 37 42 44 48 47 47 48 48 37 28 23 23 24 22 17 15 12 10 10 10 12 8 3 2
335 333 332 332 329 329 345 347 346 356 359 356 356 2 324 307 322 15 19 21 30 44 49 45 50 51 47 40 32 32 26 21 20 18 15 12 11 12 12 11 10 11 10 10
327 336 336 336 335 339 349 353 2 3 4 353 345 355 35 221 40 39 13 29 40 46 48 50 43 39 34 25 23 23 22 23 23 16 14 12 12 12 13 15 18 17 15 14
334 343 341 339 342 345 347 356 360 1 360 357 344 26 71 28 33 11 28 33 24 44 44 41 37 33 24 18 20 22 21 22 19 18 16 15 15 12 20 22 22 20 19 24
330 339 340 338 339 340 340 342 343 339 341 350 27 28 84 31 11 8 13 20 23 34 40 37 37 29 24 21 20 24 20 21 18 20 19 20 19 24 24 25 26 26 31 30
321 325 322 322 332 331 333 335 337 342 355 47 31 21 44 44 29 24 26 33 38 45 45 39 37 28 29 29 25 18 18 22 22 25 24 22 26 26 28 28 29 34 35 33